Terminal Aerodrome Forecast
Issued by NWS Austin/San Antonio, TX

Home | Current Version | Previous Version | Text Only | Print | Product List | Glossary On
Versions: 1 2 3 4 5 6 7 8 9 10 11 12 13 14 15 16 17 18
000
FTUS44 KEWX 220553
TAFDRT
TAF
KDRT 220553Z 2206/2306 11011KT P6SM FEW250
     FM221100 12010KT P6SM SCT015 BKN025
     FM221700 14015KT P6SM SCT040=

USA.gov is the U.S. government's official web portal to all federal, state and local government web resources and services.